Tracking 28096 objects as of 29-Sep-2023
HD Live streaming from Space Station
objects crossing your sky now

COSMOS 886 DEB

Track COSMOS 886 DEB now!
10-day predictions


NORAD ID: 9821
Int'l Code: 1976-126AH
Perigee: 491.2 km
Apogee: 979.7 km
Inclination: 65.8 °
Period: 99.4 minutes
Semi major axis: 7106 km
RCS: 0.051 m2 (small)
Launch date: December 27, 1976
Source: Commonwealth of Independent States (former USSR) (CIS)
Launch site: TYURATAM MISSILE AND SPACE COMPLEX (TTMTR)

Note: This is SATELLITE DEBRIS
Your satellite tracking list
Your tracking list is empty




NASA's NSSDC Master Catalog

Two Line Element Set (TLE):
1 09821U 76126AH  23271.89530568  .00013497  00000-0  16618-2 0  9999
2 09821  65.7613 193.9488 0343714 221.8379 135.5985 14.49184020317736
Source of the keplerian elements: AFSPC